Wind_Speed
27 29 28 28 28 26 25 24 24 23 21 20 21 23 24 24 23 22 22 23 24 25 25 25 25 25 25 25 24 25 25 25 25 26 27 27 28 29 30 31 32 32 33 34 35 36 37 38 39 40 41 42 42 42 42 41 40 39 37 36 36 35 35
30 31 30 30 30 28 26 26 26 25 24 22 22 24 26 26 25 24 25 25 26 26 26 27 27 27 27 27 26 26 26 26 27 28 28 29 29 30 32 33 34 34 35 35 36 38 39 40 41 42 43 44 45 44 44 43 41 40 39 37 36 36 37
31 32 32 30 29 29 28 29 29 28 27 25 25 26 28 28 27 27 27 27 27 28 28 29 29 29 29 28 28 27 28 28 29 30 30 31 31 32 33 34 35 36 36 37 38 39 41 42 43 45 46 47 46 46 45 45 43 41 40 39 38 38 39
34 34 33 31 30 29 31 32 32 32 31 29 28 29 30 30 29 29 28 28 29 30 30 30 30 31 30 29 30 29 29 30 31 32 32 33 33 34 35 35 37 37 38 39 40 41 42 43 45 46 48 49 48 47 46 46 44 42 41 41 41 41 41
36 36 35 34 32 31 33 35 35 35 35 33 32 31 32 32 31 31 30 30 31 31 31 32 32 32 31 31 32 31 31 32 33 34 34 34 35 35 36 37 38 39 39 40 41 43 44 45 46 48 49 50 50 49 48 47 45 43 42 42 42 43 44
37 39 38 36 34 33 35 37 36 37 37 35 34 33 34 34 33 33 32 32 33 33 33 34 34 34 33 33 34 33 34 35 35 35 36 36 37 37 37 38 39 40 41 42 43 44 45 46 48 49 50 51 51 50 49 48 47 46 44 43 44 45 45
40 42 41 38 36 35 36 37 37 37 37 36 36 35 36 36 35 34 34 34 34 34 35 35 35 36 36 36 36 36 37 38 38 37 38 38 39 39 39 40 40 41 42 43 44 46 47 48 49 50 51 52 52 51 50 49 48 48 47 46 46 46 45
42 44 44 40 38 38 38 39 39 37 38 38 38 38 37 37 36 36 35 35 36 36 37 37 38 38 38 38 38 38 40 40 40 40 40 41 41 41 41 41 42 42 44 45 46 47 48 49 50 52 52 53 53 52 51 50 49 49 49 49 48 47 46
44 46 47 43 41 40 41 41 40 39 39 40 41 40 39 38 38 38 37 37 38 38 39 39 40 40 40 40 41 42 43 43 42 42 42 43 43 43 43 44 44 44 45 47 48 49 49 50 51 53 53 54 54 53 52 51 50 49 49 49 50 49 47
47 47 49 47 43 43 43 42 41 41 42 42 43 42 42 41 41 41 40 40 40 40 41 42 43 43 42 43 44 45 46 45 45 45 44 45 45 45 45 46 46 46 46 48 50 51 51 52 53 54 55 55 55 55 54 53 52 51 50 50 52 51 49
52 48 50 51 46 45 47 45 44 45 45 45 45 44 44 44 44 43 43 42 42 43 43 44 45 45 45 46 47 48 48 48 48 47 47 47 47 47 48 48 48 48 48 49 50 52 53 54 54 55 55 56 56 56 55 54 53 52 51 52 53 53 51
57 51 52 54 49 47 49 48 47 47 47 48 47 47 47 47 46 47 46 44 44 45 45 46 47 48 48 48 50 51 51 50 50 49 49 49 49 50 49 50 50 51 51 51 51 52 54 56 56 57 57 56 57 57 56 55 54 53 52 53 54 54 52
60 54 54 55 53 50 50 49 49 49 49 50 50 50 50 49 49 49 47 47 47 47 48 48 49 50 51 51 52 53 53 53 52 52 51 51 52 52 51 51 52 53 53 53 53 54 55 57 58 59 59 58 58 58 57 56 54 54 54 54 54 54 52
61 57 57 59 56 53 53 52 51 51 52 52 53 53 53 52 51 51 50 50 49 50 50 50 51 53 54 54 55 56 56 55 54 53 53 54 54 54 54 54 54 54 55 56 56 56 57 59 60 60 60 60 60 59 59 57 56 55 54 53 53 55 54
63 62 61 63 61 59 57 55 53 54 54 54 55 55 54 54 54 53 53 53 52 52 52 53 54 56 57 56 57 58 58 57 56 56 56 56 56 56 56 56 56 56 57 57 58 59 59 60 62 62 62 61 61 60 60 59 57 56 54 53 53 56 58
64 64 63 65 65 62 59 57 57 58 57 56 56 56 56 56 56 56 56 55 55 54 54 56 58 59 60 60 59 59 59 59 58 58 59 59 59 59 58 58 58 58 58 58 59 60 60 61 62 64 64 63 62 61 61 60 58 57 56 55 56 59 60
67 67 65 66 66 63 60 60 60 60 59 58 58 58 57 57 58 58 58 57 57 56 57 60 61 61 62 62 61 61 61 61 60 60 61 61 61 61 61 61 61 61 60 60 61 61 62 61 62 63 64 64 63 61 61 61 59 58 54 53 57 61 62
70 70 70 71 70 66 62 61 61 61 61 60 58 58 59 59 59 59 59 59 59 58 60 62 64 64 63 63 63 63 63 62 62 62 63 63 63 63 63 63 63 63 63 62 62 63 63 63 63 63 63 64 64 63 62 61 61 60 55 52 56 62 63
73 74 73 73 73 70 68 66 65 64 63 61 59 60 61 60 60 60 61 62 61 61 63 64 64 63 63 63 63 64 65 64 64 64 65 65 65 65 65 65 66 66 66 65 64 65 65 64 64 64 64 64 65 64 62 62 63 62 60 58 59 63 65
76 76 75 74 74 74 73 72 70 68 66 64 63 63 63 61 60 61 63 64 64 65 66 66 66 64 63 63 63 64 66 66 66 67 67 67 67 67 67 67 68 68 68 67 66 66 67 67 66 66 65 64 65 65 63 63 64 64 63 63 63 65 67
78 78 77 76 78 78 76 75 73 71 70 68 66 66 66 64 64 65 66 66 67 68 69 70 69 68 66 65 64 65 67 69 69 69 69 69 70 69 69 70 70 70 69 69 68 68 68 69 68 68 67 66 65 65 64 64 65 65 65 65 66 67 66
80 81 80 80 82 82 78 76 76 75 72 69 68 68 68 68 68 68 69 69 70 72 72 73 72 71 69 67 66 67 69 70 71 71 71 71 72 72 72 72 73 72 71 70 70 69 70 70 70 70 69 68 66 65 65 65 66 67 67 68 68 69 67
83 84 84 83 84 85 82 78 77 78 74 70 69 70 70 70 69 70 71 71 73 75 75 75 74 73 71 70 69 69 70 71 73 73 73 73 74 75 75 75 75 75 74 72 71 71 71 71 70 70 70 69 68 67 66 66 67 68 70 70 71 71 70
88 87 87 86 86 87 85 79 77 78 77 74 73 73 72 71 71 72 72 72 75 78 78 77 75 74 74 73 72 71 71 72 73 74 75 75 77 78 78 78 78 77 75 74 73 72 72 72 71 70 70 70 69 69 68 68 69 71 72 72 72 72 72
91 90 89 88 88 90 86 78 76 80 81 78 76 75 74 73 73 73 73 74 77 80 79 78 76 76 76 75 74 74 74 74 74 75 77 78 79 80 81 81 80 78 77 76 75 74 74 73 71 71 71 70 70 69 70 70 71 73 74 75 74 74 74
93 93 91 90 92 92 85 78 79 83 82 80 79 77 76 75 74 74 74 75 79 82 81 80 78 77 77 77 77 77 76 76 76 77 78 80 81 83 83 82 81 80 79 77 76 76 74 73 72 71 71 70 70 71 72 73 73 73 75 77 76 76 76
94 94 92 92 93 90 83 79 81 82 81 81 81 79 77 75 75 75 76 77 80 82 82 80 79 79 79 79 79 79 79 78 78 79 80 81 82 82 82 82 81 80 79 78 77 76 75 73 72 71 71 71 72 73 74 75 75 75 76 78 78 78 78
93 93 93 93 91 86 83 83 83 81 78 77 78 79 77 76 77 77 76 75 76 78 79 79 79 80 80 80 80 80 80 80 79 80 81 81 82 82 82 82 81 80 79 79 78 77 75 72 71 72 73 73 73 74 75 76 77 77 77 79 80 80 79
90 91 94 94 90 86 86 88 88 86 81 77 77 78 77 77 79 79 78 77 77 79 81 82 83 82 82 82 82 82 81 80 80 81 81 80 81 82 82 82 82 81 80 79 78 76 74 72 72 74 75 74 74 74 75 76 77 78 79 81 81 81 80
88 89 91 92 90 89 90 91 91 91 88 83 82 81 79 79 80 81 80 80 81 82 84 83 83 82 82 83 83 82 81 81 80 80 81 81 81 81 81 82 82 81 80 79 78 75 73 73 74 76 76 76 75 75 75 77 78 79 81 82 82 81 80
87 87 88 89 90 90 90 91 91 92 90 88 88 87 85 84 84 83 82 83 83 82 82 82 83 83 84 83 83 82 81 81 81 80 80 80 80 80 80 80 80 80 80 79 76 74 73 75 76 77 77 76 76 77 77 77 79 80 81 81 81 81 81
79 81 82 83 85 88 90 91 93 94 94 93 92 92 91 90 88 87 86 86 86 85 84 84 85 85 85 85 83 82 82 81 81 80 79 79 79 80 79 79 80 81 80 77 74 73 74 76 77 77 77 77 77 78 77 78 79 80 80 80 81 81 81
67 66 67 68 71 78 86 90 94 97 98 98 97 95 94 93 91 89 88 87 86 86 86 87 87 86 86 85 83 82 81 81 80 80 79 79 80 80 79 78 79 80 78 75 73 74 75 77 77 77 77 77 77 78 78 78 78 79 79 80 80 79 79
54 52 53 55 58 66 74 79 84 90 93 96 99 98 97 95 92 90 88 87 87 87 87 86 86 85 84 83 82 81 81 80 80 80 80 80 80 79 78 77 77 77 76 74 74 76 77 77 76 76 77 77 77 77 77 77 78 79 80 78 76 76 77
44 46 50 53 54 59 64 66 72 78 81 86 92 95 94 93 91 89 88 87 85 84 83 83 84 84 83 82 82 81 80 81 80 80 80 79 79 78 76 75 75 75 75 75 76 77 78 77 75 75 76 76 76 76 76 78 79 79 75 73 73 75 78
37 41 47 50 52 56 62 66 70 74 76 79 82 84 85 85 85 84 85 86 85 83 83 83 84 84 83 82 81 80 81 82 81 79 78 77 76 75 75 74 74 75 76 77 77 77 76 75 75 75 75 75 75 74 75 76 73 68 67 72 77 79 79
32 38 45 50 54 60 67 71 72 73 73 72 72 73 75 78 79 80 82 83 84 83 83 83 84 83 82 82 81 81 81 81 79 76 76 75 75 75 75 75 75 76 76 76 76 75 75 75 74 74 74 74 74 72 71 69 66 67 75 81 81 80 79
37 44 52 58 63 66 70 72 70 70 70 68 66 67 69 73 75 77 79 81 82 83 83 83 83 82 81 81 80 79 79 78 76 75 75 75 76 76 76 76 76 75 75 74 74 74 75 74 74 73 71 72 72 71 69 68 70 75 80 79 78 79 79
Wind_Direction
235 236 236 238 240 240 239 241 239 238 244 250 254 261 266 268 272 275 278 282 285 288 291 293 295 297 299 301 305 308 311 315 317 318 318 318 319 319 319 319 320 322 324 325 326 327 327 327 327 328 328 329 329 329 328 327 325 323 323 323 324 323 322
236 237 238 240 241 241 240 241 242 243 251 255 256 261 266 269 273 275 277 280 283 286 289 291 294 295 297 300 304 307 310 313 315 315 315 314 316 316 316 317 319 320 322 323 324 325 325 325 325 326 327 328 329 329 328 327 325 323 322 323 323 323 323
236 239 242 243 244 244 242 243 245 247 253 258 258 261 265 268 272 275 277 279 282 285 288 290 292 293 295 299 302 305 308 310 311 311 311 312 312 313 313 315 317 319 320 322 323 323 323 324 324 325 326 327 328 328 327 326 325 323 322 322 322 322 322
238 240 243 245 244 244 245 246 247 249 254 258 259 261 264 268 271 273 275 279 281 284 287 289 291 292 295 299 301 303 305 307 307 307 308 308 309 310 311 313 315 317 318 320 320 320 321 322 323 324 325 326 327 327 326 325 324 322 321 321 321 321 320
241 243 242 243 243 243 247 250 251 253 255 258 260 262 265 268 271 272 274 278 281 284 286 288 290 292 295 298 299 301 303 304 303 304 305 306 306 308 309 311 313 315 316 317 318 319 320 321 321 322 323 324 325 326 324 323 322 321 320 320 320 319 318
243 245 243 243 244 245 249 252 255 257 258 259 262 265 267 270 272 274 276 278 281 284 286 287 289 292 294 295 297 299 300 300 300 301 303 304 304 306 308 310 311 313 314 315 316 317 318 320 320 320 321 323 324 324 323 322 321 320 320 320 319 318 317
243 246 246 243 244 245 248 252 255 257 258 259 262 267 269 272 274 275 276 278 280 283 284 286 288 290 292 293 295 297 297 297 298 300 301 302 303 304 306 308 309 311 312 313 315 316 317 318 318 319 320 321 322 322 321 321 321 321 320 319 320 319 318
244 247 249 247 246 247 248 251 253 255 255 255 260 266 270 272 274 275 275 277 279 281 282 285 287 288 290 292 294 295 294 294 296 298 299 300 301 303 305 306 307 309 311 312 313 314 315 316 317 317 318 319 320 321 321 321 320 320 319 318 320 320 318
243 246 250 250 249 250 250 252 254 255 255 255 259 266 270 271 273 274 275 276 277 280 282 284 285 287 289 290 292 292 292 293 295 296 297 298 300 301 303 304 306 308 309 310 311 312 313 315 315 315 317 318 319 320 321 321 320 320 319 317 318 319 317
244 244 249 251 249 250 252 254 255 256 256 257 260 264 268 270 272 273 273 274 276 279 280 282 284 286 287 289 290 289 290 292 293 294 295 297 298 300 301 303 305 307 308 309 310 311 312 313 313 314 316 317 319 320 321 321 320 319 318 316 317 318 317
249 244 246 249 249 248 251 252 254 255 257 259 260 262 264 267 270 271 272 274 275 277 279 281 283 284 286 287 287 288 289 290 291 292 294 296 297 299 300 302 304 305 306 307 308 310 311 311 311 313 315 317 319 320 320 320 319 319 317 316 316 317 315
250 247 246 248 248 247 248 250 252 254 257 259 261 262 264 266 268 270 271 272 274 276 278 280 281 283 284 285 286 286 287 288 290 291 293 295 296 297 299 301 302 304 305 306 307 308 310 310 311 312 314 317 319 319 319 319 318 317 316 315 314 313 313
248 249 248 249 249 248 248 249 251 252 255 258 260 262 263 265 267 269 270 271 272 275 276 278 280 281 282 283 284 285 286 287 289 290 292 293 294 296 298 299 301 302 304 305 306 308 309 310 311 312 315 317 318 319 318 318 317 317 316 314 312 312 311
246 248 249 250 251 251 250 250 251 252 253 255 257 260 262 263 265 266 268 269 271 273 275 276 278 279 280 282 282 283 284 286 288 290 291 292 293 295 297 298 300 302 304 306 307 308 309 309 310 312 315 317 318 318 317 317 317 316 315 313 313 312 311
245 246 248 251 252 251 251 252 253 253 253 254 256 258 260 262 264 265 266 268 270 272 274 275 277 278 279 280 281 282 284 285 287 289 290 291 292 294 296 298 300 302 303 305 306 307 308 309 311 313 315 316 316 316 316 316 315 315 314 313 312 311 311
243 244 246 250 252 250 250 252 253 253 254 254 256 257 259 261 263 265 266 268 270 271 273 274 276 277 278 279 280 282 283 285 287 288 289 291 292 294 296 298 299 301 302 304 305 306 308 309 311 312 313 314 314 315 314 314 314 314 314 313 312 312 312
244 245 244 246 250 251 251 251 252 252 253 254 256 257 258 260 262 264 266 267 269 270 272 273 275 275 276 278 279 281 283 285 286 288 289 290 292 294 296 297 299 300 301 302 304 305 307 308 309 310 311 312 313 313 313 313 312 314 314 310 310 312 313
244 245 245 245 248 251 252 252 251 251 252 254 255 256 258 259 261 263 265 266 268 269 271 272 273 274 275 277 278 280 282 284 285 287 288 290 292 294 296 297 298 299 301 302 303 304 306 307 308 309 310 311 311 312 313 312 311 312 313 309 308 311 313
244 245 246 247 250 251 251 250 252 253 254 256 256 257 258 259 259 261 264 265 267 268 269 271 272 273 274 276 278 280 282 283 285 286 288 290 292 293 295 297 298 299 300 302 303 304 305 306 307 308 309 310 310 311 312 311 310 311 312 311 310 312 313
244 246 247 248 250 251 251 252 254 256 257 258 258 259 259 259 260 262 264 265 267 268 268 269 270 271 273 276 278 280 282 284 285 287 288 290 292 294 295 296 297 298 299 301 302 304 305 306 307 308 309 309 309 310 311 310 309 310 312 311 311 312 312
243 245 247 248 250 251 253 255 256 256 257 258 259 260 261 262 263 264 265 266 267 267 268 269 269 271 273 275 277 280 283 285 286 288 289 291 293 294 295 296 296 297 299 301 302 304 305 306 307 308 308 308 309 310 310 309 309 310 311 311 311 312 313
242 244 245 247 248 250 251 253 255 256 256 257 259 260 261 262 263 264 265 266 267 268 268 269 270 272 273 274 277 280 283 286 287 289 290 292 293 294 294 295 296 297 299 301 303 304 305 306 307 307 307 308 308 309 309 308 309 310 310 310 311 313 313
241 242 243 244 246 249 249 250 253 256 257 257 257 258 259 260 262 263 265 266 267 268 269 270 272 273 275 276 278 281 284 286 288 289 291 292 293 293 294 295 296 298 300 301 302 304 304 305 306 307 307 308 308 308 308 309 309 309 309 310 312 313 314
242 242 243 244 245 248 249 249 251 255 257 257 257 258 259 260 262 263 265 267 268 269 270 272 274 276 277 278 281 283 285 287 288 289 291 291 292 293 294 295 296 298 299 300 302 303 303 305 306 307 307 308 308 309 309 309 309 309 309 311 312 313 313
244 244 244 245 245 247 248 248 250 253 255 255 256 257 259 260 261 264 265 267 269 270 271 273 275 277 278 280 281 283 285 287 288 289 291 291 292 293 294 295 296 298 299 300 301 302 304 305 306 306 307 308 308 308 308 309 309 310 310 311 312 312 312
244 245 246 246 247 248 249 248 249 250 253 255 256 257 258 260 262 264 266 267 269 270 272 274 275 277 278 280 282 284 285 287 288 289 291 292 293 294 295 296 297 298 299 301 302 303 304 305 305 306 306 307 307 308 308 309 310 310 310 310 311 311 312
243 245 246 247 249 252 252 251 250 250 250 252 255 256 258 260 262 264 266 267 268 270 272 274 274 276 278 280 281 283 285 286 288 289 290 292 293 294 295 296 297 298 299 301 302 303 304 304 305 305 305 306 307 307 308 309 309 310 310 309 310 310 311
242 245 247 248 250 252 253 253 253 252 251 252 254 256 257 259 261 262 264 265 266 268 270 272 274 275 277 279 281 282 284 285 287 288 289 291 292 293 294 295 296 297 298 299 301 302 302 303 303 303 304 306 306 307 308 308 309 309 309 308 309 310 310
241 243 246 248 250 251 253 254 255 256 257 256 256 257 257 258 260 261 261 262 264 267 269 271 274 276 277 278 279 280 282 284 286 287 288 289 290 291 292 293 294 295 296 298 299 301 301 302 302 303 304 306 306 307 307 308 308 308 307 307 308 309 309
241 242 244 247 250 251 253 255 257 260 261 260 259 259 259 259 260 261 261 262 264 266 269 271 273 275 276 277 278 279 281 283 284 285 286 288 289 290 291 292 292 293 295 297 299 300 301 301 302 303 304 305 305 306 306 307 306 306 306 307 308 308 308
243 243 244 247 249 252 254 257 259 261 262 262 262 262 262 261 261 261 261 262 264 265 268 270 272 273 274 276 277 279 281 282 283 284 285 287 288 289 290 291 291 292 295 297 299 300 300 300 301 303 304 304 304 305 305 305 305 305 306 307 307 307 306
245 246 247 249 252 255 257 259 260 261 262 264 264 264 264 263 262 262 262 263 264 266 267 269 270 271 273 275 277 278 279 281 282 283 284 285 286 288 289 290 290 292 295 297 298 298 298 299 300 302 302 303 304 304 304 304 305 305 306 306 305 305 305
247 249 249 251 255 259 260 260 261 261 261 262 262 262 262 262 262 263 263 264 265 266 266 267 268 270 271 273 275 276 278 279 281 282 283 284 285 287 288 289 290 292 295 296 297 296 296 298 300 300 301 302 302 303 303 304 304 304 305 305 304 304 304
244 245 243 242 247 255 259 260 261 261 261 261 261 259 259 260 261 262 262 263 264 264 265 266 267 268 270 272 274 275 276 278 279 280 282 283 285 286 288 289 290 291 293 294 295 295 296 298 298 299 300 300 301 302 303 304 304 304 305 304 304 304 306
237 237 235 232 236 243 247 248 250 252 254 255 255 255 255 257 259 260 260 261 262 263 264 265 266 268 269 271 273 274 276 277 278 279 281 283 285 286 287 288 289 290 291 292 293 294 296 297 297 298 299 299 300 302 302 304 306 307 306 305 305 306 308
236 239 235 232 232 235 236 236 237 238 240 244 249 252 253 255 257 258 259 259 261 263 265 266 267 268 269 270 272 273 274 276 277 279 281 282 283 284 285 286 286 288 289 290 292 294 295 295 296 297 297 298 300 301 304 308 310 307 304 304 305 306 307
240 244 239 234 230 228 228 229 229 231 237 245 251 254 255 256 257 258 259 260 261 263 265 265 266 267 268 270 271 272 274 276 278 280 280 281 282 283 283 284 286 287 289 290 292 292 293 294 295 296 298 300 302 304 307 308 303 297 297 301 304 305 305
229 235 234 233 229 226 226 228 229 233 242 251 257 259 258 259 259 260 260 261 262 263 265 266 268 268 269 270 271 272 274 276 278 278 279 280 280 281 283 285 286 288 289 289 290 290 291 293 294 297 299 301 303 304 304 300 295 295 298 302 304 305 304
Height
10968 10967 10968 10969 10970 10971 10973 10973 10974 10974 10974 10975 10976 10978 10978 10978 10979 10979 10979 10979 10979 10979 10979 10979 10979 10978 10977 10977 10976 10976 10975 10974 10973 10972 10971 10970 10969 10967 10966 10964 10963 10962 10962 10960 10959 10957 10956 10954 10952 10949 10947 10946 10944 10942 10940 10938 10936 10933 10932 10929 10927 10924 10922
10965 10965 10965 10967 10968 10969 10971 10971 10971 10972 10972 10973 10974 10975 10975 10976 10976 10977 10977 10977 10976 10977 10977 10976 10976 10975 10975 10974 10974 10973 10972 10971 10971 10970 10969 10968 10967 10965 10963 10962 10961 10960 10959 10958 10956 10955 10953 10951 10948 10946 10944 10942 10940 10938 10936 10934 10932 10929 10927 10925 10922 10920 10918
10962 10962 10963 10965 10966 10967 10968 10968 10968 10969 10970 10971 10972 10972 10972 10973 10973 10974 10974 10974 10974 10974 10974 10974 10973 10973 10972 10972 10971 10970 10970 10969 10968 10967 10966 10965 10964 10963 10961 10959 10958 10957 10956 10954 10953 10951 10949 10947 10945 10942 10940 10938 10936 10934 10932 10929 10927 10925 10922 10920 10918 10916 10914
10959 10960 10961 10962 10963 10964 10964 10964 10965 10966 10967 10968 10968 10969 10969 10970 10970 10971 10971 10971 10971 10971 10971 10971 10971 10969 10969 10969 10968 10968 10967 10966 10965 10964 10963 10962 10961 10960 10958 10957 10955 10953 10952 10951 10949 10948 10946 10944 10941 10939 10936 10934 10932 10930 10928 10925 10923 10921 10918 10916 10914 10912 10910
10955 10955 10957 10958 10959 10961 10961 10961 10962 10963 10964 10965 10965 10966 10966 10967 10967 10967 10968 10968 10968 10968 10968 10968 10967 10966 10966 10966 10965 10965 10964 10963 10962 10961 10960 10959 10958 10957 10956 10954 10952 10951 10949 10948 10946 10944 10943 10941 10938 10936 10933 10930 10928 10926 10924 10921 10919 10917 10915 10913 10910 10908 10906
10952 10951 10952 10954 10956 10958 10958 10958 10959 10959 10960 10961 10961 10962 10962 10963 10963 10964 10964 10965 10964 10964 10964 10964 10964 10963 10963 10963 10962 10962 10961 10959 10959 10958 10957 10956 10955 10954 10953 10951 10949 10948 10946 10944 10943 10941 10939 10937 10935 10932 10930 10927 10925 10922 10920 10917 10914 10912 10911 10909 10907 10904 10902
10947 10946 10947 10950 10952 10953 10954 10954 10955 10956 10956 10957 10957 10958 10958 10958 10960 10960 10961 10961 10961 10961 10960 10960 10960 10960 10960 10959 10959 10959 10957 10955 10955 10954 10954 10952 10952 10951 10950 10948 10946 10944 10942 10941 10939 10938 10936 10934 10931 10928 10926 10924 10922 10919 10916 10913 10910 10907 10905 10904 10903 10901 10898
10941 10941 10941 10946 10948 10948 10950 10950 10951 10952 10953 10953 10953 10953 10954 10955 10956 10957 10957 10957 10957 10957 10957 10957 10957 10956 10956 10956 10956 10955 10953 10951 10951 10951 10950 10949 10948 10947 10946 10944 10943 10941 10939 10937 10935 10934 10932 10930 10928 10925 10922 10920 10918 10915 10913 10910 10907 10904 10901 10899 10898 10896 10893
10936 10936 10936 10940 10943 10944 10945 10946 10947 10948 10949 10949 10949 10949 10951 10951 10952 10953 10953 10953 10953 10953 10953 10953 10953 10952 10952 10952 10952 10950 10948 10947 10947 10946 10946 10945 10944 10943 10941 10940 10939 10938 10936 10933 10931 10930 10928 10927 10924 10921 10918 10916 10913 10911 10908 10905 10902 10900 10897 10894 10893 10892 10889
10929 10932 10932 10934 10938 10940 10940 10942 10944 10944 10944 10944 10945 10946 10946 10947 10947 10948 10949 10949 10950 10950 10949 10949 10948 10948 10948 10948 10947 10945 10943 10943 10942 10942 10941 10941 10940 10939 10937 10936 10935 10934 10933 10930 10928 10926 10923 10922 10920 10917 10914 10912 10908 10906 10904 10901 10897 10895 10892 10889 10887 10886 10884
10921 10928 10927 10927 10932 10935 10935 10936 10938 10939 10939 10939 10940 10941 10942 10942 10943 10943 10944 10945 10945 10945 10945 10945 10944 10943 10943 10943 10942 10940 10939 10938 10937 10937 10937 10936 10935 10934 10933 10931 10930 10929 10928 10927 10925 10922 10919 10917 10915 10913 10911 10908 10904 10901 10898 10896 10893 10890 10887 10884 10881 10880 10878
10914 10921 10922 10921 10926 10930 10929 10931 10933 10934 10934 10934 10935 10936 10936 10937 10938 10938 10939 10940 10941 10941 10941 10940 10939 10938 10938 10938 10936 10934 10934 10933 10932 10932 10932 10931 10930 10929 10928 10927 10925 10924 10923 10923 10921 10919 10916 10912 10909 10908 10906 10903 10900 10896 10894 10892 10889 10887 10883 10879 10876 10874 10871
10908 10914 10916 10916 10920 10923 10924 10926 10928 10929 10930 10929 10930 10931 10931 10932 10933 10933 10934 10935 10935 10936 10935 10935 10934 10932 10932 10932 10931 10929 10928 10927 10927 10927 10927 10926 10925 10924 10924 10923 10921 10919 10918 10917 10916 10914 10911 10907 10904 10902 10900 10898 10895 10892 10889 10887 10885 10883 10880 10875 10870 10867 10865
10905 10908 10909 10909 10913 10917 10918 10920 10923 10924 10925 10925 10925 10926 10927 10927 10928 10928 10929 10929 10930 10930 10930 10930 10929 10926 10926 10927 10925 10923 10922 10922 10922 10922 10922 10920 10919 10919 10918 10918 10917 10915 10913 10911 10909 10908 10906 10902 10898 10896 10895 10893 10890 10887 10884 10882 10880 10878 10875 10871 10866 10862 10860
10899 10902 10902 10902 10905 10909 10911 10915 10918 10918 10919 10920 10920 10921 10921 10922 10922 10922 10923 10923 10924 10925 10924 10924 10923 10921 10920 10920 10919 10917 10917 10917 10917 10917 10915 10914 10914 10914 10913 10912 10911 10910 10908 10906 10903 10902 10900 10897 10893 10890 10889 10888 10885 10883 10880 10877 10875 10873 10870 10866 10862 10858 10855
10892 10894 10896 10895 10897 10902 10906 10909 10912 10912 10913 10915 10915 10915 10916 10916 10916 10916 10917 10917 10918 10919 10918 10916 10916 10915 10913 10914 10913 10912 10911 10911 10911 10910 10909 10908 10908 10908 10907 10907 10905 10904 10903 10902 10899 10897 10895 10893 10890 10886 10883 10882 10881 10879 10875 10872 10870 10869 10866 10862 10858 10854 10849
10886 10888 10890 10889 10890 10895 10900 10902 10904 10906 10907 10909 10910 10911 10911 10911 10911 10910 10910 10911 10911 10913 10912 10909 10908 10908 10907 10907 10907 10906 10905 10905 10906 10904 10903 10902 10902 10901 10901 10901 10900 10898 10897 10896 10894 10892 10891 10890 10888 10884 10880 10877 10875 10874 10871 10866 10864 10864 10863 10859 10853 10848 10845
10880 10881 10882 10882 10885 10889 10894 10896 10897 10899 10900 10902 10904 10905 10906 10906 10906 10905 10905 10904 10905 10907 10906 10903 10901 10902 10901 10901 10901 10901 10899 10899 10900 10899 10897 10897 10896 10896 10895 10894 10893 10891 10890 10890 10889 10887 10885 10885 10883 10880 10877 10873 10869 10868 10865 10860 10857 10857 10859 10855 10849 10843 10840
10872 10873 10875 10877 10879 10883 10886 10887 10889 10892 10894 10897 10899 10899 10900 10901 10901 10900 10899 10898 10899 10900 10899 10896 10895 10896 10896 10896 10896 10895 10893 10894 10894 10893 10891 10891 10891 10890 10889 10887 10886 10884 10884 10884 10883 10881 10879 10878 10876 10874 10872 10868 10863 10861 10859 10854 10850 10850 10850 10848 10843 10838 10834
10864 10866 10869 10872 10872 10874 10876 10878 10883 10886 10888 10891 10893 10892 10894 10896 10896 10894 10893 10892 10892 10893 10892 10890 10889 10890 10891 10891 10890 10889 10887 10887 10887 10887 10885 10885 10884 10884 10883 10881 10879 10878 10877 10877 10877 10875 10872 10870 10868 10867 10865 10862 10858 10855 10853 10848 10843 10842 10842 10839 10836 10832 10828
10857 10858 10861 10864 10863 10864 10868 10871 10875 10879 10882 10884 10886 10887 10888 10890 10890 10888 10886 10886 10885 10885 10884 10883 10882 10883 10885 10886 10885 10884 10882 10880 10880 10880 10879 10878 10877 10877 10876 10875 10873 10872 10872 10871 10869 10868 10865 10863 10861 10859 10857 10856 10853 10850 10847 10842 10837 10835 10833 10830 10828 10825 10821
10849 10849 10851 10853 10852 10853 10860 10865 10866 10868 10874 10878 10880 10881 10881 10883 10883 10881 10880 10880 10878 10876 10876 10876 10876 10877 10879 10880 10880 10879 10878 10875 10873 10873 10873 10872 10871 10870 10869 10867 10866 10865 10865 10864 10863 10861 10858 10856 10854 10851 10848 10848 10847 10844 10841 10836 10831 10828 10825 10823 10820 10817 10813
10837 10838 10839 10842 10842 10842 10849 10858 10859 10859 10865 10871 10872 10873 10873 10875 10876 10875 10874 10873 10870 10868 10868 10869 10870 10871 10871 10873 10873 10873 10873 10870 10868 10867 10867 10866 10864 10862 10861 10860 10859 10858 10857 10857 10856 10854 10851 10849 10847 10843 10840 10839 10838 10836 10834 10830 10826 10821 10818 10815 10812 10808 10805
10826 10827 10827 10832 10835 10832 10837 10851 10856 10853 10855 10860 10863 10864 10866 10869 10869 10868 10868 10867 10863 10860 10861 10863 10864 10864 10864 10865 10866 10866 10866 10865 10863 10861 10860 10859 10856 10854 10853 10852 10851 10851 10850 10849 10849 10847 10844 10843 10841 10837 10833 10830 10828 10826 10824 10822 10819 10814 10810 10807 10804 10801 10797
10814 10817 10819 10824 10825 10821 10829 10846 10851 10845 10846 10850 10854 10857 10858 10860 10862 10862 10862 10861 10856 10853 10854 10857 10858 10858 10857 10857 10858 10858 10859 10859 10857 10855 10853 10851 10849 10846 10844 10844 10843 10843 10842 10841 10840 10839 10837 10835 10833 10830 10827 10824 10821 10818 10815 10814 10811 10806 10800 10798 10796 10794 10790
10803 10806 10812 10815 10811 10813 10828 10841 10840 10837 10840 10843 10845 10847 10850 10853 10855 10856 10856 10855 10850 10847 10848 10851 10852 10851 10850 10850 10850 10850 10851 10851 10850 10849 10846 10843 10841 10837 10835 10834 10834 10834 10832 10832 10832 10830 10828 10827 10824 10822 10820 10817 10813 10810 10806 10804 10803 10799 10792 10788 10787 10786 10782
10796 10798 10804 10806 10804 10811 10825 10830 10827 10828 10834 10836 10837 10840 10844 10848 10849 10849 10849 10848 10845 10842 10841 10843 10844 10843 10843 10843 10843 10843 10843 10843 10843 10842 10839 10836 10833 10830 10826 10825 10825 10825 10823 10823 10823 10821 10820 10819 10816 10813 10812 10810 10806 10803 10799 10795 10793 10791 10786 10780 10778 10776 10774
10794 10797 10798 10797 10802 10812 10818 10816 10815 10819 10826 10830 10833 10835 10839 10842 10841 10841 10842 10841 10840 10837 10836 10836 10836 10836 10837 10837 10837 10836 10836 10836 10836 10834 10833 10830 10827 10824 10820 10818 10818 10817 10816 10816 10816 10814 10812 10811 10808 10805 10804 10802 10799 10796 10792 10787 10783 10781 10777 10772 10769 10767 10765
10791 10792 10790 10791 10801 10811 10810 10806 10806 10812 10820 10826 10828 10828 10832 10834 10833 10833 10834 10835 10834 10833 10830 10829 10829 10830 10830 10830 10830 10829 10829 10830 10829 10827 10826 10824 10821 10818 10815 10812 10811 10811 10810 10809 10809 10807 10804 10802 10800 10797 10795 10794 10791 10788 10785 10780 10776 10772 10768 10763 10761 10758 10756
10782 10786 10788 10790 10797 10803 10803 10802 10802 10806 10812 10818 10820 10821 10824 10826 10824 10824 10826 10827 10828 10826 10825 10824 10824 10824 10823 10822 10822 10822 10822 10823 10822 10820 10818 10817 10814 10812 10809 10805 10803 10804 10804 10803 10802 10799 10796 10794 10792 10789 10787 10785 10783 10781 10778 10774 10768 10764 10759 10755 10752 10749 10746
10774 10781 10787 10789 10792 10796 10799 10800 10800 10800 10804 10807 10809 10812 10815 10815 10816 10817 10818 10818 10818 10819 10819 10819 10818 10816 10815 10815 10815 10816 10815 10815 10814 10813 10812 10810 10807 10805 10802 10798 10795 10796 10796 10796 10794 10792 10789 10786 10784 10781 10779 10777 10774 10773 10771 10767 10761 10756 10752 10748 10744 10740 10736
10769 10776 10784 10790 10793 10795 10796 10796 10794 10794 10796 10797 10799 10801 10803 10804 10805 10808 10808 10809 10809 10811 10812 10812 10810 10809 10808 10808 10809 10809 10808 10807 10806 10805 10805 10803 10800 10798 10795 10791 10788 10788 10788 10789 10787 10785 10782 10780 10777 10775 10771 10769 10766 10764 10762 10759 10754 10749 10746 10741 10736 10731 10727
10763 10772 10782 10790 10795 10793 10790 10788 10785 10783 10784 10785 10785 10787 10789 10790 10793 10797 10799 10800 10801 10802 10802 10802 10802 10802 10802 10802 10803 10802 10801 10800 10799 10798 10797 10795 10793 10791 10788 10785 10782 10780 10780 10780 10779 10777 10775 10773 10770 10768 10764 10762 10759 10756 10754 10751 10747 10742 10738 10734 10728 10723 10719
10757 10765 10771 10779 10785 10785 10784 10782 10778 10774 10774 10773 10770 10770 10774 10778 10783 10788 10790 10791 10791 10791 10791 10792 10793 10793 10794 10795 10795 10795 10794 10793 10791 10790 10789 10787 10785 10783 10781 10779 10776 10773 10773 10772 10770 10768 10767 10765 10763 10760 10757 10754 10752 10749 10746 10743 10739 10735 10730 10726 10720 10715 10711
10752 10756 10759 10763 10767 10771 10774 10775 10773 10769 10767 10763 10757 10756 10761 10767 10772 10777 10779 10780 10781 10782 10783 10784 10784 10785 10786 10787 10787 10786 10785 10784 10783 10783 10782 10779 10776 10775 10774 10773 10770 10768 10766 10765 10763 10760 10759 10757 10755 10753 10750 10747 10746 10743 10739 10736 10732 10727 10721 10716 10712 10708 10704
10748 10751 10754 10755 10755 10757 10760 10763 10761 10758 10757 10753 10748 10748 10753 10759 10763 10767 10769 10770 10772 10774 10775 10775 10775 10776 10778 10779 10779 10778 10776 10775 10775 10776 10775 10772 10769 10768 10766 10765 10763 10762 10760 10758 10755 10753 10751 10749 10747 10745 10742 10740 10739 10737 10735 10731 10726 10719 10713 10708 10704 10701 10697
10745 10748 10749 10747 10745 10743 10745 10747 10747 10747 10748 10747 10745 10746 10749 10752 10754 10757 10760 10762 10764 10764 10765 10765 10767 10769 10770 10771 10771 10769 10767 10766 10768 10768 10766 10764 10762 10761 10759 10757 10756 10755 10753 10750 10748 10745 10743 10741 10739 10736 10734 10732 10730 10731 10732 10731 10724 10715 10707 10702 10697 10694 10689
10738 10739 10737 10734 10732 10732 10734 10738 10741 10741 10741 10740 10740 10741 10742 10744 10746 10750 10752 10753 10755 10755 10756 10758 10759 10760 10762 10762 10762 10760 10758 10759 10760 10759 10757 10755 10754 10753 10751 10750 10749 10747 10745 10743 10740 10737 10734 10732 10730 10729 10727 10725 10723 10724 10726 10724 10717 10709 10702 10697 10691 10686 10680